Date String (YYYY-MM-DD hh:mm:ss) UTC,Instrument flags,absolute air pressure of the measurement (hPa),sample flow rate (lpm),inlet stack bypass flow (lpm),air temperature of the measurement (°C),ambient temperature measured by the external sensor (°C),aerosol sample conditioner tube jacket temperature (°C),OPC LED temperature (°C),internal box temperature (°C),relative humidity of the measurement (%),span deviation,mass concentration of particles derived from Lorenz-Mie calculation of OPC scattering (μg/m³),mass concentration of particles derived from Lorenz-Mie calculation of OPC scattering (μg/m³),mass concentration of particles derived from Lorenz-Mie calculation of OPC scattering (μg/m³)
DateTimeUTC,F1_M11,P_M11,Q1_M11,Q2_M11,T1_M11,T2_M11,T3_M11,T4_M11,T5_M11,U1_M11,ZSPAN_M11,X0_M11,X2_M11,X1_M11
2023-08-30 09:00:00,SystemResetWarning,0834.5,5.00,000.00,028.2,026.0,000.0,036.9,029.7,26.3,0000.8,0012.38,0005.39,0004.94
2023-08-30 09:01:00,SystemResetWarning,0834.4,5.00,000.00,028.2,026.2,000.0,036.9,029.8,26.3,0000.8,0011.50,0005.38,0004.95
2023-08-30 09:02:00,SystemResetWarning,0834.3,5.01,000.00,028.2,026.4,000.0,036.9,029.8,26.3,0001.2,0011.19,0005.37,0004.95
2023-08-30 09:03:00,SystemResetWarning,0834.4,5.00,000.00,028.2,026.6,000.0,036.9,029.8,26.3,0001.7,0010.40,0005.41,0004.95
2023-08-30 09:04:00,SystemResetWarning,0834.5,5.00,000.00,028.3,026.7,000.0,036.9,029.9,26.2,0001.4,0010.59,0005.44,0004.95
2023-08-30 09:05:00,SystemResetWarning,0834.6,5.00,000.00,028.3,026.8,000.0,036.9,029.9,26.2,0001.3,0010.87,0005.42,0004.95
2023-08-30 09:06:00,SystemResetWarning,0834.4,5.00,000.00,028.3,026.9,000.0,036.9,029.9,26.3,0001.4,0009.86,0005.42,0004.95
2023-08-30 09:07:00,SystemResetWarning,0834.6,4.99,000.00,028.3,027.0,000.0,036.9,030.0,26.6,0001.0,0009.25,0005.42,0004.95
2023-08-30 09:08:00,SystemResetWarning,0834.5,5.00,000.00,028.4,027.0,000.0,036.9,030.0,27.0,0000.6,0009.16,0005.39,0004.94
2023-08-30 09:09:00,SystemResetWarning,0834.4,5.00,000.00,028.4,027.1,000.0,036.9,030.0,27.1,0000.1,0009.11,0005.35,0004.93
2023-08-30 09:10:00,SystemResetWarning,0834.3,5.00,000.00,028.4,027.1,000.0,037.0,030.0,27.3,-000.1,0009.06,0005.34,0004.92
2023-08-30 09:11:00,SystemResetWarning,0834.3,5.00,000.00,028.4,027.2,000.0,037.0,030.1,27.0,0000.1,0008.94,0005.33,0004.91
2023-08-30 09:12:00,SystemResetWarning,0834.5,5.00,000.00,028.4,027.2,000.0,037.0,030.1,26.6,-000.1,0008.90,0005.29,0004.87
2023-08-30 09:13:00,SystemResetWarning,0834.4,5.00,000.00,028.5,027.3,000.0,037.0,030.1,26.7,-000.2,0009.51,0005.31,0004.86
2023-08-30 09:14:00,SystemResetWarning,0834.7,5.00,000.00,028.5,027.3,000.0,037.0,030.1,26.3,-000.6,0009.54,0005.26,0004.84
2023-08-30 09:15:00,SystemResetWarning,0834.4,4.99,000.00,028.5,027.4,000.0,037.0,030.2,26.5,-000.2,0009.22,0005.25,0004.82
2023-08-30 09:16:00,SystemResetWarning,0834.2,4.99,000.00,028.6,027.4,000.0,037.1,030.2,26.7,-000.8,0008.94,0005.24,0004.80
2023-08-30 09:17:00,SystemResetWarning,0834.2,5.00,000.00,028.6,027.4,000.0,037.1,030.2,27.1,-001.4,0008.92,0005.21,0004.78
2023-08-30 09:18:00,SystemResetWarning,0834.2,5.01,000.00,028.6,027.4,000.0,037.1,030.2,27.1,-000.9,0008.94,0005.21,0004.76
2023-08-30 09:19:00,SystemResetWarning,0834.3,5.01,000.00,028.6,027.4,000.0,037.1,030.2,27.1,-000.5,0009.25,0005.23,0004.74
2023-08-30 09:20:00,SystemResetWarning,0834.3,4.99,000.00,028.6,027.4,000.0,037.2,030.3,27.1,0000.0,0009.41,0005.22,0004.72
2023-08-30 09:21:00,SystemResetWarning,0834.2,4.99,000.00,028.6,027.5,000.0,037.2,030.3,26.7,0000.0,0009.64,0005.19,0004.69
2023-08-30 09:22:00,SystemResetWarning,0834.2,5.00,000.00,028.7,027.0,000.0,037.1,030.3,26.2,0000.0,0009.76,0005.18,0004.69
2023-08-30 09:23:00,SystemResetWarning,0834.2,5.01,000.00,028.6,025.1,000.0,037.0,030.0,26.1,0000.0,0009.68,0005.17,0004.68
2023-08-30 09:24:00,SystemResetWarning,0834.1,5.01,000.00,028.5,024.2,000.0,036.9,029.7,26.2,0000.0,0009.08,0005.15,0004.65
2023-08-30 09:25:00,SystemResetWarning,0834.1,5.01,000.00,028.3,024.2,000.0,036.9,029.4,26.6,0000.0,0008.93,0005.14,0004.64
2023-08-30 09:26:00,SystemResetWarning,0834.1,5.00,000.00,028.2,024.6,000.0,036.9,029.4,27.0,0000.0,0008.85,0005.12,0004.63
2023-08-30 09:27:00,SystemResetWarning,0834.1,5.00,000.00,028.2,025.0,000.0,036.9,029.5,27.1,0000.0,0008.87,0005.10,0004.63
2023-08-30 09:28:00,SystemResetWarning,0834.1,5.00,000.00,028.2,025.4,000.0,036.9,029.6,27.2,0000.0,0008.90,0005.10,0004.62
2023-08-30 09:29:00,SystemResetWarning,0834.1,5.00,000.00,028.2,025.7,000.0,036.9,029.6,27.1,0000.0,0008.80,0005.06,0004.62
2023-08-30 09:30:00,SystemResetWarning,0834.1,5.00,000.00,028.2,026.0,000.0,036.9,029.7,26.6,0000.0,0008.55,0005.03,0004.63
2023-08-30 09:31:00,SystemResetWarning,0834.1,5.00,000.00,028.2,026.2,000.0,036.9,029.8,26.6,0000.9,0008.45,0005.00,0004.63
2023-08-30 09:32:00,SystemResetWarning,0834.1,5.00,000.00,028.2,026.4,000.0,036.9,029.8,26.6,0000.4,0008.30,0005.01,0004.64
2023-08-30 09:33:00,SystemResetWarning,0834.1,5.00,000.00,028.2,026.5,000.0,036.9,029.8,26.7,0000.3,0008.19,0005.01,0004.64
2023-08-30 09:34:00,SystemResetWarning,0834.1,5.00,000.00,028.2,026.7,000.0,036.9,029.9,27.1,-000.0,0008.35,0005.04,0004.65
2023-08-30 09:35:00,SystemResetWarning,0834.1,5.00,000.00,028.3,026.8,000.0,036.9,029.9,27.2,-000.1,0008.30,0005.01,0004.64
2023-08-30 09:36:00,SystemResetWarning,0834.1,4.99,000.00,028.3,026.9,000.0,036.9,029.9,27.2,0000.4,0008.75,0004.99,0004.64
2023-08-30 09:37:00,SystemResetWarning,0834.1,5.00,000.00,028.3,027.0,000.0,036.9,029.9,27.4,0000.5,0009.30,0005.02,0004.64
2023-08-30 09:38:00,SystemResetWarning,0834.1,5.00,000.00,028.3,027.0,000.0,036.9,030.0,27.4,0000.4,0009.52,0005.03,0004.63
2023-08-30 09:39:00,SystemResetWarning,0834.1,5.00,000.00,028.4,027.1,000.0,036.9,030.0,27.0,0001.0,0009.43,0005.02,0004.62
2023-08-30 09:40:00,SystemResetWarning,0834.1,5.02,000.00,028.4,027.1,000.0,036.9,030.0,26.9,0001.8,0009.44,0005.04,0004.61
2023-08-30 09:41:00,SystemResetWarning,0834.1,5.00,000.00,028.4,027.2,000.0,037.0,030.1,27.0,0001.4,0009.41,0005.04,0004.61
2023-08-30 09:42:00,SystemResetWarning,0834.1,4.99,000.00,028.4,027.2,000.0,037.0,030.1,26.8,0001.5,0009.32,0005.03,0004.62
2023-08-30 09:43:00,SystemResetWarning,0834.1,5.00,000.00,028.4,027.2,000.0,037.0,030.1,26.7,0002.4,0009.65,0005.03,0004.62
2023-08-30 09:44:00,SystemResetWarning,0834.1,5.01,000.00,028.5,027.2,000.0,037.0,030.1,26.7,0002.6,0009.55,0005.01,0004.63
2023-08-30 09:45:00,SystemResetWarning,0834.1,5.00,000.00,028.5,027.3,000.0,037.0,030.1,26.8,0002.9,0009.36,0004.99,0004.64
2023-08-30 09:46:00,SystemResetWarning,0834.1,5.00,000.00,028.5,027.3,000.0,037.0,030.1,26.7,0003.0,0009.38,0005.00,0004.66
2023-08-30 09:47:00,SystemResetWarning,0834.1,5.00,000.00,028.5,027.3,000.0,037.1,030.2,26.7,0002.5,0009.19,0005.06,0004.68
2023-08-30 09:48:00,SystemResetWarning,0834.1,4.99,000.00,028.6,027.3,000.0,037.1,030.2,26.6,0002.0,0009.28,0005.06,0004.69
2023-08-30 09:49:00,SystemResetWarning,0834.0,5.00,000.00,028.6,027.4,000.0,037.1,030.2,26.5,0001.8,0009.13,0005.04,0004.70
2023-08-30 09:50:00,SystemResetWarning,0834.0,5.01,000.00,028.6,027.4,000.0,037.1,030.2,26.6,0001.5,0009.77,0005.08,0004.71
2023-08-30 09:51:00,SystemResetWarning,0834.0,5.00,000.00,028.6,027.4,000.0,037.2,030.3,26.5,0000.6,0010.24,0005.13,0004.74
2023-08-30 09:52:00,SystemResetWarning,0834.0,4.99,000.00,028.6,027.4,000.0,037.2,030.3,26.5,0000.4,0010.20,0005.12,0004.75
2023-08-30 09:53:00,SystemResetWarning,0834.0,4.99,000.00,028.7,027.5,000.0,037.2,030.3,26.4,0000.0,0010.23,0005.13,0004.76
2023-08-30 09:54:00,SystemResetWarning,0834.0,4.99,000.00,028.7,027.5,000.0,037.2,030.3,26.4,0000.5,0009.97,0005.17,0004.77
2023-08-30 09:55:00,SystemResetWarning,0834.0,4.99,000.00,028.7,027.5,000.0,037.2,030.3,26.4,0000.3,0009.77,0005.18,0004.77
2023-08-30 09:56:00,SystemResetWarning,0834.0,5.00,000.00,028.7,027.5,000.0,037.2,030.3,26.4,0000.6,0010.02,0005.21,0004.78
2023-08-30 09:57:00,SystemResetWarning,0834.0,5.00,000.00,028.7,027.6,000.0,037.3,030.4,26.3,0000.9,0010.10,0005.24,0004.79
2023-08-30 09:58:00,SystemResetWarning,0834.0,5.00,000.00,028.8,027.6,000.0,037.3,030.4,26.3,0001.3,0010.15,0005.26,0004.80
2023-08-30 09:59:00,SystemResetWarning,0833.9,4.99,000.00,028.8,026.8,000.0,037.2,030.3,26.2,0000.5,0009.80,0005.22,0004.80
